This is the latest recevied weather packets stored in our database for station/object KC5CAM-13. If no packets are shown the sender has not sent any weather packets the latest 10 day(s).
| Time | Temp. | Humidity | Pressure | Rain* | Wind** | Luminosity | Snow |
|---|---|---|---|---|---|---|---|
| 1777850988 | 26.67° C | 36% | 1015.8 hPa | 0 mm | - | 176 W/m² | - |
| 1777850685 | 26.67° C | 35% | 1016 hPa | 0 mm | - | 187 W/m² | - |
| 1777850383 | 26.67° C | 36% | 1016.3 hPa | 0 mm | - | 201 W/m² | - |
| 1777850080 | 26.11° C | 35% | 1016.2 hPa | 0 mm | - | 174 W/m² | - |
| 1777849777 | 26.11° C | 35% | 1016.2 hPa | 0 mm | - | 124 W/m² | - |
| 1777849473 | 26.67° C | 34% | 1016.2 hPa | 0 mm | - | 127 W/m² | - |
| 1777849171 | 26.67° C | 33% | 1016.4 hPa | 0 mm | - | 191 W/m² | - |
| 1777848868 | 26.67° C | 33% | 1016.5 hPa | 0 mm | - | 240 W/m² | - |
| 1777848563 | 26.67° C | 33% | 1016.5 hPa | 0 mm | - | 259 W/m² | - |
| 1777848260 | 27.22° C | 32% | 1016.5 hPa | 0 mm | - | 285 W/m² | - |
| 1777847958 | 27.22° C | 34% | 1016.4 hPa | 0 mm | - | 285 W/m² | - |
| 1777847656 | 27.22° C | 33% | 1016.6 hPa | 0 mm | - | 289 W/m² | - |
| 1777847356 | 27.22° C | 35% | 1016.3 hPa | 0 mm | - | 320 W/m² | - |
| 1777847055 | 27.22° C | 36% | 1016.4 hPa | 0 mm | - | 334 W/m² | - |
| 1777846753 | 27.22° C | 33% | 1016.5 hPa | 0 mm | - | 342 W/m² | - |
| 1777846451 | 27.22° C | 34% | 1016.6 hPa | 0 mm | - | 359 W/m² | - |
| 1777846147 | 27.22° C | 35% | 1016.7 hPa | 0 mm | - | 370 W/m² | - |
| 1777845844 | 27.22° C | 33% | 1016.9 hPa | 0 mm | - | 383 W/m² | - |
| 1777845541 | 27.78° C | 34% | 1016.6 hPa | 0 mm | - | 396 W/m² | - |
| 1777845238 | 27.22° C | 33% | 1016.7 hPa | 0 mm | - | 414 W/m² | - |
| 1777844935 | 27.22° C | 33% | 1017.1 hPa | 0 mm | - | 412 W/m² | - |
| 1777844633 | 27.22° C | 34% | 1016.9 hPa | 0 mm | - | 408 W/m² | - |
| 1777844330 | 27.78° C | 36% | 1017 hPa | 0 mm | - | 436 W/m² | - |
| 1777844028 | 27.22° C | 34% | 1017.2 hPa | 0 mm | - | 482 W/m² | - |
| 1777843724 | 27.22° C | 36% | 1017 hPa | 0 mm | - | 473 W/m² | - |
* Rain latest hour (hover to see other rain measurements)
** Current wind speed in m/s (hover to see current wind gust speed)